Find Starlink 36085

NORAD ID: 67035 Int'l Des: 2025-294 Owner: SPXS Country: US Constellation: starlink operational
LEOCIRCULAR

現在のビュー

3D地球を読み込み中...

Starlink 36085について

説明を読み込み中...

次回通過

Passes for default location (London). Set your location on the main map for personalized predictions.

高度履歴

Loading altitude history...

軌道要素

1 67035U 25294F 26149.75847180 .00032195 00000-0 11731-2 0 9990
2 67035 43.0029 300.5851 0002110 259.0198 101.0416 15.27615589 27192
Epoch: May 29, 2026 • Age: 25 hours

現在のステータス

高度 494.4 km
速度 7.62 km/s
衛星直下点 -42.53°S, 21.33°E
打ち上げ日 Dec 11, 2025
運用期間 0.4 years
タイプ internet

技術仕様

分類 Payload
質量 575.00 kg
乾燥質量 530.00 kg
総質量 575.00 kg
長さ 0.30 m
直径 4.10 m
スパン 29.00 m
形状 Box + pan
製造者 SPXS
バスタイプ Starlink V2MO
フェーズステータス In Orbit
所有者/国 SPXS/US

Most Searched